EN

Hourly Weather Syhnaivka

Today, 30 October, Friday

Time Temperature Precipitation Wind Pressure Humidity
00:00 +10°C° 0 mm 0 mps 747 mmHg 85%
01:00 +10°C° 0 mm 0 mps 747 mmHg 86%
02:00 +11°C° 0 mm 1 mps 747 mmHg 86%
03:00 +11°C° 0 mm 1 mps 747 mmHg 85%
04:00 +11°C° 0 mm 1 mps 747 mmHg 85%
05:00 +11°C° 0 mm 1 mps 747 mmHg 84%
06:00 +11°C° 0 mm 1 mps 747 mmHg 83%
07:00 +10°C° 0 mm 0 mps 747 mmHg 82%
08:00 +11°C° 0 mm 0 mps 748 mmHg 80%
09:00 +13°C° 0 mm 1 mps 748 mmHg 74%
10:00 +14°C° 0 mm 1 mps 748 mmHg 67%
11:00 +15°C° 0 mm 1 mps 748 mmHg 61%
12:00 +15°C° 0 mm 2 mps 747 mmHg 59%
13:00 +15°C° 0 mm 2 mps 747 mmHg 58%
14:00 +15°C° 0 mm 2 mps 747 mmHg 56%
15:00 +15°C° 0 mm 2 mps 747 mmHg 60%
16:00 +14°C° 0 mm 2 mps 747 mmHg 64%
17:00 +14°C° 0 mm 2 mps 747 mmHg 68%
18:00 +13°C° 0 mm 2 mps 748 mmHg 71%
19:00 +13°C° 0 mm 2 mps 748 mmHg 75%
20:00 +12°C° 0 mm 2 mps 748 mmHg 78%
21:00 +12°C° 0 mm 2 mps 748 mmHg 82%
22:00 +10°C° 0 mm 2 mps 748 mmHg 85%
23:00 +10°C° 0 mm 3 mps 748 mmHg 88%

Tomorrow, 31 October, Saturday

Time Temperature Precipitation Wind Pressure Humidity
00:00 +9°C° 0 mm 3 mps 748 mmHg 89%
01:00 +9°C° 0 mm 3 mps 748 mmHg 89%
02:00 +9°C° 0 mm 3 mps 748 mmHg 90%
03:00 +9°C° 0.2 mm 3 mps 748 mmHg 90%
04:00 +9°C° 0.2 mm 3 mps 748 mmHg 90%
05:00 +9°C° 0.2 mm 3 mps 748 mmHg 90%
06:00 +8°C° 0.5 mm 4 mps 748 mmHg 90%
07:00 +8°C° 0.5 mm 4 mps 748 mmHg 90%
08:00 +8°C° 0.5 mm 5 mps 748 mmHg 90%
09:00 +8°C° 0.4 mm 5 mps 748 mmHg 89%
10:00 +8°C° 0.4 mm 5 mps 748 mmHg 88%
11:00 +8°C° 0.4 mm 5 mps 748 mmHg 87%
12:00 +8°C° 0.2 mm 5 mps 747 mmHg 85%
13:00 +8°C° 0.2 mm 5 mps 747 mmHg 83%
14:00 +8°C° 0.2 mm 5 mps 747 mmHg 82%
15:00 +8°C° 0.1 mm 5 mps 747 mmHg 83%
16:00 +8°C° 0.1 mm 5 mps 747 mmHg 84%
17:00 +8°C° 0.1 mm 6 mps 747 mmHg 85%
18:00 +8°C° 0.1 mm 6 mps 747 mmHg 87%
19:00 +8°C° 0.1 mm 6 mps 747 mmHg 88%
20:00 +8°C° 0.1 mm 6 mps 747 mmHg 90%
21:00 +8°C° 0.2 mm 6 mps 746 mmHg 90%
22:00 +8°C° 0.2 mm 6 mps 746 mmHg 90%
23:00 +8°C° 0.2 mm 6 mps 746 mmHg 90%

Day after tomorrow, 1 November, Sunday

Time Temperature Precipitation Wind Pressure Humidity
00:00 +8°C° 0.5 mm 5 mps 746 mmHg 90%
01:00 +8°C° 0.5 mm 5 mps 745 mmHg 91%
02:00 +8°C° 0.5 mm 5 mps 745 mmHg 92%
03:00 +8°C° 0.8 mm 5 mps 745 mmHg 92%
04:00 +8°C° 0.8 mm 5 mps 745 mmHg 92%
05:00 +8°C° 0.8 mm 5 mps 744 mmHg 93%
06:00 +8°C° 0.6 mm 5 mps 744 mmHg 92%
07:00 +8°C° 0.6 mm 5 mps 744 mmHg 92%
08:00 +8°C° 0.6 mm 5 mps 744 mmHg 92%
09:00 +8°C° 0.2 mm 5 mps 744 mmHg 91%
10:00 +8°C° 0.2 mm 5 mps 744 mmHg 91%
11:00 +8°C° 0.2 mm 5 mps 744 mmHg 90%
12:00 +8°C° 0.1 mm 5 mps 744 mmHg 90%
13:00 +8°C° 0.1 mm 4 mps 744 mmHg 89%
14:00 +8°C° 0.1 mm 4 mps 744 mmHg 89%
15:00 +8°C° 0.2 mm 4 mps 745 mmHg 90%
16:00 +8°C° 0.2 mm 4 mps 745 mmHg 91%
17:00 +7°C° 0.2 mm 4 mps 745 mmHg 91%
18:00 +8°C° 0.2 mm 3 mps 745 mmHg 92%
19:00 +8°C° 0.2 mm 3 mps 745 mmHg 92%
20:00 +8°C° 0.2 mm 3 mps 745 mmHg 93%
21:00 +8°C° 0 mm 3 mps 745 mmHg 93%
22:00 +8°C° 0 mm 3 mps 745 mmHg 93%
23:00 +8°C° 0 mm 3 mps 745 mmHg 93%

2 November, Monday

Time Temperature Precipitation Wind Pressure Humidity
00:00 +8°C° 0 mm 3 mps 745 mmHg 93%
01:00 +8°C° 0 mm 3 mps 745 mmHg 93%
02:00 +7°C° 0 mm 4 mps 745 mmHg 93%
03:00 +7°C° 0 mm 4 mps 745 mmHg 92%
04:00 +7°C° 0 mm 4 mps 745 mmHg 92%
05:00 +7°C° 0 mm 4 mps 745 mmHg 92%
06:00 +7°C° 0 mm 4 mps 745 mmHg 91%
07:00 +7°C° 0 mm 5 mps 746 mmHg 91%
08:00 +7°C° 0 mm 5 mps 746 mmHg 90%
09:00 +8°C° 0.1 mm 4 mps 746 mmHg 89%
10:00 +8°C° 0.1 mm 4 mps 747 mmHg 87%
11:00 +8°C° 0.1 mm 4 mps 747 mmHg 86%
12:00 +10°C° 0.1 mm 4 mps 747 mmHg 85%
13:00 +10°C° 0.1 mm 4 mps 747 mmHg 84%
14:00 +10°C° 0.1 mm 4 mps 748 mmHg 84%
15:00 +10°C° 0 mm 4 mps 748 mmHg 85%
16:00 +10°C° 0 mm 3 mps 748 mmHg 86%
17:00 +10°C° 0 mm 3 mps 748 mmHg 88%
18:00 +10°C° 0 mm 3 mps 749 mmHg 88%
19:00 +10°C° 0 mm 2 mps 749 mmHg 89%
20:00 +10°C° 0 mm 2 mps 749 mmHg 90%
21:00 +9°C° 0 mm 2 mps 749 mmHg 91%
22:00 +9°C° 0 mm 2 mps 750 mmHg 93%
23:00 +8°C° 0 mm 2 mps 750 mmHg 95%

3 November, Tuesday

Time Temperature Precipitation Wind Pressure Humidity
00:00 +8°C° 0 mm 2 mps 750 mmHg 95%
01:00 +8°C° 0 mm 2 mps 750 mmHg 95%
02:00 +8°C° 0 mm 2 mps 750 mmHg 96%
03:00 +8°C° 0.3 mm 2 mps 750 mmHg 96%
04:00 +8°C° 0.3 mm 2 mps 750 mmHg 96%
05:00 +9°C° 0.3 mm 1 mps 750 mmHg 97%
06:00 +9°C° 0.4 mm 1 mps 750 mmHg 96%
07:00 +10°C° 0.4 mm 1 mps 750 mmHg 96%
08:00 +10°C° 0.4 mm 1 mps 751 mmHg 95%
09:00 +10°C° 0.1 mm 1 mps 751 mmHg 91%
10:00 +11°C° 0.1 mm 1 mps 751 mmHg 88%
11:00 +11°C° 0.1 mm 0 mps 751 mmHg 84%
12:00 +12°C° 0.1 mm 1 mps 751 mmHg 80%
13:00 +13°C° 0.1 mm 1 mps 751 mmHg 76%
14:00 +13°C° 0.1 mm 1 mps 751 mmHg 73%
15:00 +12°C° 0.2 mm 1 mps 751 mmHg 76%
16:00 +12°C° 0.2 mm 1 mps 751 mmHg 79%
17:00 +11°C° 0.2 mm 1 mps 752 mmHg 82%
18:00 +11°C° 0.1 mm 1 mps 752 mmHg 84%
19:00 +11°C° 0.1 mm 1 mps 752 mmHg 85%
20:00 +10°C° 0.1 mm 1 mps 752 mmHg 87%
21:00 +10°C° 0.1 mm 1 mps 753 mmHg 87%
22:00 +10°C° 0.1 mm 1 mps 753 mmHg 88%
23:00 +10°C° 0.1 mm 1 mps 753 mmHg 88%

4 November, Wednesday

Time Temperature Precipitation Wind Pressure Humidity
00:00 +10°C° 0 mm 1 mps 753 mmHg 89%
01:00 +9°C° 0 mm 1 mps 753 mmHg 90%
02:00 +9°C° 0 mm 1 mps 753 mmHg 92%
03:00 +8°C° 0 mm 1 mps 754 mmHg 92%
04:00 +8°C° 0 mm 1 mps 754 mmHg 93%
05:00 +7°C° 0 mm 2 mps 754 mmHg 94%
06:00 +7°C° 0 mm 2 mps 754 mmHg 93%
07:00 +7°C° 0 mm 2 mps 755 mmHg 93%
08:00 +7°C° 0 mm 2 mps 755 mmHg 93%
09:00 +9°C° 0 mm 2 mps 755 mmHg 86%
10:00 +10°C° 0 mm 2 mps 756 mmHg 79%
11:00 +13°C° 0 mm 2 mps 756 mmHg 72%
12:00 +13°C° 0 mm 2 mps 756 mmHg 69%
13:00 +14°C° 0 mm 2 mps 756 mmHg 66%
14:00 +14°C° 0 mm 2 mps 756 mmHg 63%
15:00 +13°C° 0 mm 2 mps 756 mmHg 67%
16:00 +12°C° 0 mm 2 mps 756 mmHg 72%
17:00 +10°C° 0 mm 2 mps 756 mmHg 77%
18:00 +10°C° 0 mm 2 mps 757 mmHg 79%
19:00 +9°C° 0 mm 2 mps 757 mmHg 81%
20:00 +9°C° 0 mm 2 mps 757 mmHg 83%
21:00 +8°C° 0 mm 2 mps 757 mmHg 86%
22:00 +8°C° 0 mm 2 mps 758 mmHg 88%
23:00 +8°C° 0 mm 2 mps 758 mmHg 91%
Show more

We Need Your Consent

Meteoprog and our Service Providers may store and access personal data such as cookies, device identifiers or other similar technologies on your device and process such data to personalise content and ads, as well as provide social media features and to analyse the traffic.

  • Store and/or access information on your device

    Cookies, device identifiers or other information can be stored or accessed on your device for the purposes indicated above.

  • Personalised ads and content, ad and content measurement, audience insights, and products development

    Ads and content can be personalised based on a profile. More data can be added to better personalise ads and content. Ad and content performance can be measured. Insights about the audience who saw the ads and content can be derived. Such data can be used to develop or improve user’s experience, systems and software.

By clicking ‘I Agree’ you will allow the use of indicated cookies, device identifiers, web beacons or other similar technologies. Your settings can be changed in the browser on your device.

For certain purposes, legitimate interests may be relied on, rather than consent. You can read more about this in our Privacy and Cookie Policy.